User: anonymous   Login
Location: Unspecified
(0.0000°N, 0.0000°E)
Time: 07:52:41
(UTC+00:00)
Language:

GONETS M 07 - Orbit

View from above orbital plane
View from above orbital plane
View from above satellite
View from above satellite

Ground track
Ground track

The orbit data is extracted from the following two-line orbital elements,

1 39251U 13048C   17329.14723433  .00000006  00000-0 -27051-4 0  9991
2 39251  82.4862 133.3308 0016027 184.9144 175.1783 12.42878289190687
Epoch (UTC): 25 November 2017 03:32:01
Eccentricity: 0.0016027
inclination: 82.4862°
perigee height: 1482 km
apogee height: 1507 km
right ascension of ascending node: 133.3308°
argument of perigee: 184.9144°
revolutions per day: 12.42878289
mean anomaly at epoch: 175.1783°
orbit number at epoch: 19068

The dashed part of the orbit path shows where the satellite is in the earth's shadow,  

DLR